TimeEDT,TemperatureF,Dew PointF,Humidity,Sea Level PressureIn,VisibilityMPH,Wind Direction,Wind SpeedMPH,Gust SpeedMPH,PrecipitationIn,Events,Conditions,WindDirDegrees,DateUTC
12:53 AM,63.0,46.9,56,30.14,10.0,Calm,Calm,-,N/A,,Clear,0,2012-09-16 04:53:00
1:53 AM,61.0,46.9,60,30.14,10.0,Calm,Calm,-,N/A,,Clear,0,2012-09-16 05:53:00
2:53 AM,61.0,46.9,60,30.13,10.0,Calm,Calm,-,N/A,,Clear,0,2012-09-16 06:53:00
3:53 AM,61.0,46.9,60,30.12,10.0,Calm,Calm,-,N/A,,Clear,0,2012-09-16 07:53:00
4:53 AM,61.0,46.0,58,30.11,10.0,Calm,Calm,-,N/A,,Clear,0,2012-09-16 08:53:00
5:53 AM,60.1,46.9,62,30.11,10.0,Calm,Calm,-,N/A,,Clear,0,2012-09-16 09:53:00
6:53 AM,60.1,46.9,62,30.13,10.0,Calm,Calm,-,N/A,,Mostly Cloudy,0,2012-09-16 10:53:00
7:53 AM,59.0,48.2,67,30.16,10.0,Calm,Calm,-,N/A,Rain,Light Rain,0,2012-09-16 11:53:00
8:53 AM,60.1,48.9,67,30.14,10.0,Calm,Calm,-,0.00,,Clear,0,2012-09-16 12:53:00
9:53 AM,61.0,50.0,67,30.15,10.0,Calm,Calm,-,N/A,,Overcast,0,2012-09-16 13:53:00
10:53 AM,64.0,51.1,63,30.14,10.0,Calm,Calm,-,N/A,,Mostly Cloudy,0,2012-09-16 14:53:00
11:53 AM,66.9,53.1,61,30.14,10.0,Calm,Calm,-,N/A,,Mostly Cloudy,0,2012-09-16 15:53:00
12:53 PM,69.1,53.1,57,30.12,10.0,Calm,Calm,-,N/A,,Overcast,0,2012-09-16 16:53:00
1:53 PM,69.1,53.1,57,30.11,10.0,Calm,Calm,-,N/A,,Overcast,0,2012-09-16 17:53:00
2:53 PM,70.0,52.0,53,30.10,10.0,Calm,Calm,-,N/A,,Overcast,0,2012-09-16 18:53:00
3:53 PM,70.0,55.0,59,30.07,10.0,Calm,Calm,-,N/A,,Overcast,0,2012-09-16 19:53:00
4:53 PM,70.0,55.9,61,30.06,10.0,Calm,Calm,-,N/A,,Overcast,0,2012-09-16 20:53:00
5:53 PM,70.0,57.9,65,30.06,10.0,Calm,Calm,-,N/A,,Scattered Clouds,0,2012-09-16 21:53:00
6:53 PM,68.0,55.0,63,30.06,10.0,Calm,Calm,-,N/A,,Overcast,0,2012-09-16 22:53:00
7:53 PM,68.0,55.0,63,30.05,10.0,Calm,Calm,-,N/A,,Scattered Clouds,0,2012-09-16 23:53:00
8:53 PM,66.9,55.9,68,30.06,10.0,SE,3.5,-,N/A,,Mostly Cloudy,140,2012-09-17 00:53:00
9:53 PM,66.9,55.9,68,30.06,10.0,SSE,3.5,-,N/A,,Overcast,150,2012-09-17 01:53:00
10:53 PM,66.0,55.9,70,30.06,10.0,Calm,Calm,-,N/A,,Overcast,0,2012-09-17 02:53:00
11:53 PM,66.0,55.9,70,30.06,10.0,Calm,Calm,-,0.00,Rain,Light Rain,0,2012-09-17 03:53:00